weather.gov     
National Weather Service

Other Public Products
NWS Homepage
This page is being discontinued on March 12, 2014.
The same data is available at this site. Please update your bookmarks.
Thank you, and we apologize for the inconvenience.
Please send an email to SR-SRH.Webmaster@noaa.gov with any concerns.


Current Version
Previous Version:    01  02  03  04  05  06  07  08  09  10  11  12  13  14  15  16  17  18  19  20  21  22  23  24  25  26  27  28  29  30  
   31  32  33  34  35  36  37  38  39  40  41  42  43  44  45  46  47  48  49  50  51  52  53  54  55  56  57  58  59  60  
[Printable]
731
FPUS83 KFGF 261831
OPUFGF
PRAIRIE TO PINES WEATHER ROUNDUP
NATIONAL WEATHER SERVICE EASTERN NORTH DAKOTA/GRAND FORKS ND
1200 PM CST WED NOV 26 2014

 **SATELLITE DATA USED TO AUGMENT SKY COVER AT AUTOMATED STATIONS**
 *****  WEATHER ACROSS EASTERN NORTH DAKOTA  *****

CITY           SKY/WX    TMP DP  RH WIND       PRES   REMARKS
GRAND FORKS    FAIR       2  -6  69 N15       30.45S WCI -17
6HR MIN TEMP:  -3; 6HR MAX TEMP:   2;

GRAND FORKS AF FAIR       1  -8  66 N13       30.45S WCI -16
GRAND CITY NWS   N/A      3 N/A N/A N13         N/A  WCI -14
BUXTON           N/A      1  -5  76 N12         N/A  WCI -16
DEVILS LAKE    FAIR       0 -15  50 N10       30.38F WCI -17
6HR MIN TEMP:   0; 6HR MAX TEMP:   1;

FARGO          PTSUNNY    5  -5  63 N21       30.39F WCI -16
6HR MIN TEMP:   2; 6HR MAX TEMP:   8;

WAHPETON ARPT  CLOUDY     7   0  72 N20       30.36R WCI -13
$$

 *****  WEATHER ACROSS CENTRAL AND WESTERN NORTH DAKOTA  *****

CITY           SKY/WX    TMP DP  RH WIND       PRES   REMARKS
JAMESTOWN      CLOUDY     4  -4  69 N9        30.37S WCI -10
6HR MIN TEMP:   1; 6HR MAX TEMP:   4; 6HR PCP: TRACE;

BISMARCK       CLOUDY    11   3  70 CALM      30.38S
6HR MIN TEMP:   6; 6HR MAX TEMP:  11; 6HR PCP:  0.02;

MINOT          PTSUNNY    4  -3  73 N6        30.40R WCI  -7
6HR MIN TEMP:   2; 6HR MAX TEMP:   6; 6HR PCP:  0.01;

MINOT AFB      CLOUDY     2  -3  79 N6        30.40S WCI  -9
6HR MIN TEMP:   2; 6HR MAX TEMP:   5; 6HR PCP: TRACE;

GARRISON         N/A      8   2  76 N5        30.36S WCI   0
6HR MIN TEMP:   6; 6HR MAX TEMP:   8; 6HR PCP:  0.01;

WILLISTON      CLOUDY    11   4  73 N12       30.38R WCI  -3
6HR MIN TEMP:   9; 6HR MAX TEMP:  14; 6HR PCP: TRACE;

DICKINSON      CLOUDY    19  13  77 N6        30.26S WCI  11
6HR MIN TEMP:  18; 6HR MAX TEMP:  20; 6HR PCP: TRACE;

HETTINGER      CLOUDY    24  19  81 NE7       30.26R HAZE    WCI  16
6HR MIN TEMP:  20; 6HR MAX TEMP:  24; 6HR PCP: TRACE;

$$

 *****  OTHER OBSERVATIONS NORTHEAST NORTH DAKOTA  *****

CITY           SKY/WX    TMP DP  RH WIND       PRES   REMARKS
WALHALLA         N/A      0  -8  71 N12       30.47F WCI -18
LANGDON        FAIR       0  -8  71 N13       30.38S WCI -18
CAVALIER       FAIR       0  -9  65 N13       30.47F WCI -18
GRAFTON        FAIR       0  -8  71 N15       30.46F WCI -20
CANDO          FAIR       1  -8  66 N10       30.42S WCI -14
FORT TOTTEN      N/A      3  -6  65 N7        29.95S WCI  -9
ROLLA          FAIR      -2  -9  71 N6        30.39S WCI -14
RUGBY          FAIR       0  -8  71 E3        30.41S
 ***** THE ABOVE OBSERVATIONS ARE NON NWS ARE NOT QUALITY
        CONTROLLED AND MAY MIS-REPORT RAIN FOR SNOW...
$$

 *****  OTHER OBSERVATIONS SOUTHEAST NORTH DAKOTA *****

CITY           SKY/WX    TMP DP  RH WIND       PRES   REMARKS
COOPERSTOWN    NOT AVBL
VALLEY CITY    MOCLDY     3  -4  72 N9        30.38S WCI -11
OAKES          FLURRIES   5  -2  72 N13       30.38R WCI -12
GWINNER        MOCLDY     9  -4  56 N15       30.38S WCI  -8
SHEYENNE NWR     N/A      5  -7  58 N8        29.95S WCI  -8
BUFFALO        NOT AVBL
WYNDMERE         N/A      7  -2  66 N13         N/A  WCI  -9
 ***** THE ABOVE OBSERVATIONS ARE NON NWS ARE NOT QUALITY
       CONTROLLED AND MAY MIS-REPORT RAIN FOR SNOW...
$$

  *****  WEATHER ACROSS NORTHERN MINNESOTA  *****

CITY           SKY/WX    TMP DP  RH WIND       PRES   REMARKS
FLAG ISLAND    FAIR      -2  -9  71 NW12      30.37R WCI -20
WARROAD        FAIR       0  -8  71 NW5       30.37F WCI -10
ROSEAU         FAIR       1  -9  60 N9        30.39S WCI -14
HALLOCK        FAIR       0  -9  65 N15       30.45S WCI -20
THF RVR FALLS  FAIR       1  -9  60 N12       30.37S WCI -15
6HR MIN TEMP:   0; 6HR MAX TEMP:   1;

HALSTAD          N/A      2  -6  69 N17         N/A  WCI -18
FOSSTON        FAIR       7  -6  56 NW9       30.34S WCI  -7
BAUDETTE       FAIR      -1  -8  72 NW14      30.34R WCI -20
6HR MIN TEMP:  -3; 6HR MAX TEMP:   2;

WASKISH        FAIR       7   0  72 NW5       30.31S WCI  -2
CROOKSTON      FAIR       1  -6  71 N15       30.43S WCI -18
$$
  *****  WEATHER ACROSS CENTRAL AND WEST MINNESOTA  *****

CITY           SKY/WX    TMP DP  RH WIND       PRES   REMARKS
BEMIDJI        FAIR       7  -6  55 N9        30.28S WCI  -7
PARK RAPIDS    FAIR      14   4  64 N9        30.24F WCI   2
6HR MIN TEMP:  11; 6HR MAX TEMP:  17; 6HR PCP: TRACE;

WADENA         FAIR      16   7  67 N10       30.24R WCI   3
DETROIT LAKES  FAIR       9   3  78 N12G17    30.29F WCI  -6
MOORHEAD       FAIR       5   0  78 N18       30.39R WCI -15
FERGUS FALLS   PTSUNNY   10   1  67 N14G22    30.33S WCI  -5
ELBOW LAKE       N/A     14   7  74 N14       30.27S WCI  -1
MORRIS MN      CLOUDY    12   7  79 NW21      30.26S WCI  -6
STAPLES        PTSUNNY   19   9  63 N9        30.22F WCI   9
WHEATON        FAIR       9   1  72 NW20G25   30.35S WCI -11
$$
  *****  WEATHER ELSEWHERE ACROSS MINNESOTA  *****

CITY           SKY/WX    TMP DP  RH WIND       PRES   REMARKS
DULUTH         FLURRIES  19  10  68 NW12      30.16S WCI   7
6HR MIN TEMP:  17; 6HR MAX TEMP:  20; 6HR PCP:  0.01;

INTRNTL FALLS  FAIR       6  -4  63 N9        30.29R WCI  -8
6HR MIN TEMP:   3; 6HR MAX TEMP:  10;

ELY            LGT SNOW  14   9  79 N7        30.18S WCI   4
CLOQUET        CLOUDY    19  10  68 NW12      30.18S WCI   7
BRAINERD       FAIR      18   9  68 N9        30.22F WCI   7
6HR MIN TEMP:  15; 6HR MAX TEMP:  18; 6HR PCP: TRACE;

HIBBING        FLURRIES  15   6  67 NW12      30.21R WCI   2
6HR MIN TEMP:  14; 6HR MAX TEMP:  18; 6HR PCP: TRACE;

ALEXANDRIA     FAIR      19  10  68 N14       30.23R WCI   6
6HR MIN TEMP:  17; 6HR MAX TEMP:  20; 6HR PCP: TRACE;

SAINT CLOUD    CLOUDY    24  15  68 N13       30.20S WCI  12
6HR MIN TEMP:  22; 6HR MAX TEMP:  25; 6HR PCP:  0.01;

MINNEAPOLIS    LGT SNOW  26  20  77 N9        30.18S WCI  17
6HR MIN TEMP:  22; 6HR MAX TEMP:  26; 6HR PCP:  0.17;

$$

  *****  WEATHER ACROSS SOUTH DAKOTA  *****

CITY           SKY/WX    TMP DP  RH WIND       PRES   REMARKS
SIOUX FALLS    FAIR      21  14  74 N18       30.21R WCI   6
6HR MIN TEMP:  21; 6HR MAX TEMP:  29; 6HR PCP: TRACE;

BROOKINGS      NOT AVBL
WATERTOWN      FAIR      10   4  76 N16       30.25R WCI  -7
6HR MIN TEMP:   9; 6HR MAX TEMP:  19; 6HR PCP: TRACE;

HURON          SUNNY     11   2  67 N22       30.33S WCI  -8
6HR MIN TEMP:  10; 6HR MAX TEMP:  19; 6HR PCP: TRACE;

SISSETON         N/A      8   3  80 N22       30.33R WCI -12
ABERDEEN       PTSUNNY    8  -2  63 N16       30.37S WCI -10
6HR MIN TEMP:   5; 6HR MAX TEMP:  11;

MITCHELL       PTSUNNY   16  10  77 N15       30.32S WCI   1
PIERRE         CLOUDY    21  13  71 NE6       30.33S WCI  13
6HR MIN TEMP:  18; 6HR MAX TEMP:  21;

MOBRIDGE       LGT SNOW  14   7  73 NE3       30.33F
RAPID CITY     CLOUDY    27  22  81 S8        30.24S WCI  19
6HR MIN TEMP:  24; 6HR MAX TEMP:  27;

$$

  *****  SOME WEATHER IN NEARBY STATES *****

CITY           SKY/WX    TMP DP  RH WIND       PRES   REMARKS
GLASGOW MT     CLOUDY    24  18  77 E9        30.29R WCI  14
6HR MIN TEMP:  21; 6HR MAX TEMP:  24;

GREAT FALLS MT SNOW      30  28  93 E6        30.13S VSB 1/2 WCI  24
6HR MIN TEMP:  29; 6HR MAX TEMP:  30; 6HR PCP:  0.11;

CHEYENNE WY    MIX PCPN  25  22  88 S8        30.17S WCI  16
6HR MIN TEMP:  22; 6HR MAX TEMP:  25; 6HR PCP: TRACE;

SCOTTSBLUFF NE LGT SNOW  31  27  85 W8        30.21F FOG     WCI  23
6HR MIN TEMP:  29; 6HR MAX TEMP:  31; 6HR PCP:  0.03;

OMAHA NE       FLURRIES  31  26  82 N32G43    30.08R WCI  16
6HR MIN TEMP:  31; 6HR MAX TEMP:  39; 6HR PCP: TRACE;

DES MOINES IA  LGT SNOW  31  27  85 NE9       29.97R FOG     WCI  23
6HR MIN TEMP:  29; 6HR MAX TEMP:  31; 6HR PCP:  0.04;

DAVENPORT IA   FAIR      26  21  81 E10       30.06S WCI  16
6HR MIN TEMP:  19; 6HR MAX TEMP:  26;

CHICAGO IL     CLOUDY    27  20  75 SE7       30.12F WCI  19
6HR MIN TEMP:  18; 6HR MAX TEMP:  27;

EAU CLAIRE WI  CLOUDY    25  17  72 N5        30.15F WCI  19
6HR MIN TEMP:  20; 6HR MAX TEMP:  26;

LA CROSSE WI   CLOUDY    27  17  66 CALM      30.14S
6HR MIN TEMP:  20; 6HR MAX TEMP:  27;

$$

  *****  SOME NATIONAL WEATHER *****

CITY           SKY/WX    TMP DP  RH WIND       PRES   REMARKS
LA GUARDIA NY  LGTSLEET  34  32  93 N10G16    30.00F FOG




U.S. Dept. of Commerce
NOAA National Weather Service
1325 East West Highway
Silver Spring, MD 20910
E-mail: w-nws.webmaster@noaa.gov
Page last modified: May 16, 2007
NATIONAL WEATHER SERVICE: for Safety, for Work, for Fun - FOR LIFE